• In Hungary
  • List of Countries
  • For 7 days
  • Water Temperature
  • Satellite Maps
  • Weather Map
  • News
  • Weather Widgets
  • user-avatar
    Login

    Hourly Weather Vysoke Myto

    Today, 14 December, Thursday

    Time Temperature Precipitation Wind Pressure Humidity
    00:00 -2°C° 0 mm 7 mps 726 mmHg 73%
    01:00 -1°C° 0 mm 7 mps 724 mmHg 70%
    02:00 -1°C° 0.2 mm 7 mps 724 mmHg 72%
    03:00 -1°C° 0.2 mm 7 mps 723 mmHg 73%
    04:00 -1°C° 0.2 mm 7 mps 722 mmHg 75%
    05:00 -1°C° 0.4 mm 7 mps 722 mmHg 76%
    06:00 -1°C° 0.4 mm 7 mps 721 mmHg 78%
    07:00 -1°C° 0 mm 6 mps 721 mmHg 79%
    08:00 -1°C° 0.2 mm 6 mps 721 mmHg 79%
    09:00 0°C° 0.2 mm 7 mps 722 mmHg 79%
    10:00 +1°C° 0.2 mm 8 mps 722 mmHg 79%
    11:00 +2°C° 0 mm 8 mps 722 mmHg 73%
    12:00 +2°C° 0 mm 8 mps 723 mmHg 66%
    13:00 +2°C° 0 mm 9 mps 723 mmHg 60%
    14:00 +2°C° 0 mm 7 mps 724 mmHg 64%
    15:00 +2°C° 0 mm 6 mps 724 mmHg 67%
    16:00 +1°C° 0 mm 5 mps 724 mmHg 71%
    17:00 0°C° 0 mm 5 mps 724 mmHg 73%
    18:00 0°C° 0 mm 5 mps 724 mmHg 75%
    19:00 0°C° 0 mm 4 mps 724 mmHg 77%
    20:00 0°C° 0 mm 4 mps 724 mmHg 80%
    21:00 0°C° 0 mm 4 mps 723 mmHg 82%
    22:00 -1°C° 0 mm 4 mps 723 mmHg 85%
    23:00 -1°C° 0 mm 4 mps 723 mmHg 85%

    Tomorrow, 15 December, Friday

    Time Temperature Precipitation Wind Pressure Humidity
    00:00 0°C° 0 mm 5 mps 722 mmHg 85%
    01:00 0°C° 0 mm 5 mps 722 mmHg 86%
    02:00 0°C° 0 mm 5 mps 722 mmHg 86%
    03:00 0°C° 0 mm 5 mps 721 mmHg 86%
    04:00 0°C° 0 mm 5 mps 721 mmHg 86%
    05:00 0°C° 0.1 mm 5 mps 720 mmHg 87%
    06:00 0°C° 0.1 mm 5 mps 720 mmHg 88%
    07:00 0°C° 0.1 mm 4 mps 720 mmHg 89%
    08:00 +1°C° 0.3 mm 5 mps 720 mmHg 87%
    09:00 +1°C° 0.3 mm 6 mps 720 mmHg 85%
    10:00 +2°C° 0.3 mm 6 mps 721 mmHg 83%
    11:00 +2°C° 0 mm 6 mps 721 mmHg 81%
    12:00 +2°C° 0 mm 6 mps 722 mmHg 79%
    13:00 +2°C° 0 mm 6 mps 722 mmHg 76%
    14:00 +1°C° 0 mm 5 mps 723 mmHg 78%
    15:00 +1°C° 0 mm 4 mps 724 mmHg 80%
    16:00 +1°C° 0 mm 3 mps 724 mmHg 82%
    17:00 0°C° 0 mm 3 mps 725 mmHg 84%
    18:00 +1°C° 0 mm 2 mps 725 mmHg 85%
    19:00 -1°C° 0 mm 2 mps 725 mmHg 87%
    20:00 -1°C° 0 mm 2 mps 725 mmHg 87%
    21:00 -1°C° 0 mm 2 mps 726 mmHg 86%
    22:00 -1°C° 0 mm 2 mps 726 mmHg 86%
    23:00 -1°C° 0 mm 2 mps 726 mmHg 87%

    Day after tomorrow, 16 December, Saturday

    Time Temperature Precipitation Wind Pressure Humidity
    00:00 -1°C° 0 mm 2 mps 726 mmHg 88%
    01:00 +1°C° 0 mm 1 mps 726 mmHg 89%
    02:00 +1°C° 0 mm 1 mps 726 mmHg 90%
    03:00 +1°C° 0 mm 1 mps 726 mmHg 90%
    04:00 +1°C° 0 mm 1 mps 726 mmHg 91%
    05:00 -1°C° 0 mm 2 mps 726 mmHg 91%
    06:00 -1°C° 0 mm 2 mps 726 mmHg 92%
    07:00 -1°C° 0 mm 2 mps 727 mmHg 93%
    08:00 -1°C° 0 mm 2 mps 727 mmHg 90%
    09:00 0°C° 0 mm 3 mps 727 mmHg 87%
    10:00 0°C° 0 mm 3 mps 728 mmHg 84%
    11:00 0°C° 0 mm 3 mps 728 mmHg 83%
    12:00 +1°C° 0 mm 3 mps 728 mmHg 82%
    13:00 +1°C° 0 mm 3 mps 729 mmHg 81%
    14:00 +1°C° 0 mm 3 mps 729 mmHg 83%
    15:00 0°C° 0 mm 3 mps 730 mmHg 84%
    16:00 +1°C° 0 mm 2 mps 730 mmHg 86%
    17:00 +1°C° 0 mm 2 mps 730 mmHg 87%
    18:00 -1°C° 0 mm 2 mps 731 mmHg 88%
    19:00 -1°C° 0 mm 2 mps 731 mmHg 89%
    20:00 -1°C° 0 mm 2 mps 732 mmHg 90%
    21:00 -1°C° 0 mm 3 mps 732 mmHg 90%
    22:00 -1°C° 0 mm 3 mps 733 mmHg 91%
    23:00 -1°C° 0 mm 3 mps 733 mmHg 91%

    17 December, Sunday

    Time Temperature Precipitation Wind Pressure Humidity
    00:00 -1°C° 0 mm 3 mps 733 mmHg 91%
    01:00 -2°C° 0 mm 3 mps 734 mmHg 90%
    02:00 -3°C° 0 mm 4 mps 734 mmHg 89%
    03:00 -3°C° 0 mm 4 mps 734 mmHg 88%
    04:00 -3°C° 0 mm 4 mps 734 mmHg 87%
    05:00 -2°C° 0.1 mm 4 mps 735 mmHg 87%
    06:00 -2°C° 0.1 mm 4 mps 735 mmHg 87%
    07:00 -2°C° 0.1 mm 4 mps 736 mmHg 87%
    08:00 -2°C° 0 mm 5 mps 736 mmHg 84%
    09:00 -2°C° 0 mm 5 mps 737 mmHg 82%
    10:00 -2°C° 0 mm 6 mps 737 mmHg 79%
    11:00 -2°C° 0 mm 6 mps 737 mmHg 77%
    12:00 -2°C° 0 mm 6 mps 738 mmHg 74%
    13:00 -2°C° 0 mm 6 mps 738 mmHg 72%
    14:00 -1°C° 0 mm 5 mps 738 mmHg 74%
    15:00 -2°C° 0 mm 4 mps 739 mmHg 77%
    16:00 -2°C° 0 mm 4 mps 739 mmHg 80%
    17:00 -2°C° 0.1 mm 4 mps 739 mmHg 83%
    18:00 -1°C° 0.1 mm 3 mps 740 mmHg 86%
    19:00 -2°C° 0.1 mm 3 mps 740 mmHg 89%
    20:00 -2°C° 0.1 mm 3 mps 740 mmHg 89%
    21:00 -3°C° 0.1 mm 4 mps 741 mmHg 90%
    22:00 -3°C° 0.1 mm 4 mps 741 mmHg 91%
    23:00 -2°C° 0.1 mm 4 mps 741 mmHg 91%

    18 December, Monday

    Time Temperature Precipitation Wind Pressure Humidity
    00:00 -2°C° 0.1 mm 4 mps 741 mmHg 91%
    01:00 -2°C° 0.1 mm 4 mps 741 mmHg 91%
    02:00 -2°C° 0.1 mm 4 mps 741 mmHg 90%
    03:00 -2°C° 0.1 mm 4 mps 740 mmHg 89%
    04:00 -2°C° 0.1 mm 4 mps 740 mmHg 89%
    05:00 -2°C° 0.2 mm 4 mps 740 mmHg 89%
    06:00 -2°C° 0.2 mm 4 mps 739 mmHg 89%
    07:00 -2°C° 0.2 mm 4 mps 739 mmHg 90%
    08:00 -2°C° 0.7 mm 4 mps 738 mmHg 90%
    09:00 -2°C° 0.7 mm 5 mps 737 mmHg 91%
    10:00 -2°C° 0.7 mm 5 mps 736 mmHg 91%
    11:00 -1°C° 1.1 mm 5 mps 735 mmHg 92%
    12:00 -1°C° 1.1 mm 5 mps 734 mmHg 92%
    13:00 0°C° 1.1 mm 5 mps 733 mmHg 93%
    14:00 0°C° 0.6 mm 4 mps 733 mmHg 93%
    15:00 0°C° 0.6 mm 4 mps 733 mmHg 93%
    16:00 0°C° 0.6 mm 4 mps 734 mmHg 93%
    17:00 0°C° 0.2 mm 4 mps 734 mmHg 93%
    18:00 0°C° 0.2 mm 4 mps 735 mmHg 93%
    19:00 0°C° 0.2 mm 4 mps 736 mmHg 93%
    20:00 -1°C° 0.1 mm 4 mps 737 mmHg 93%
    21:00 -1°C° 0.1 mm 4 mps 737 mmHg 93%
    22:00 0°C° 0.1 mm 3 mps 738 mmHg 93%
    23:00 -1°C° 0.1 mm 3 mps 739 mmHg 93%

    19 December, Tuesday

    Time Temperature Precipitation Wind Pressure Humidity
    00:00 -2°C° 0.1 mm 3 mps 740 mmHg 92%
    01:00 -2°C° 0.1 mm 2 mps 741 mmHg 91%
    02:00 -3°C° 0 mm 2 mps 741 mmHg 91%
    03:00 -3°C° 0 mm 2 mps 742 mmHg 91%
    04:00 -4°C° 0 mm 2 mps 743 mmHg 91%
    05:00 -4°C° 0 mm 2 mps 744 mmHg 91%
    06:00 -5°C° 0 mm 2 mps 745 mmHg 91%
    07:00 -5°C° 0 mm 2 mps 745 mmHg 91%
    08:00 -4°C° 0 mm 2 mps 746 mmHg 90%
    09:00 -4°C° 0 mm 2 mps 747 mmHg 89%
    10:00 -2°C° 0 mm 1 mps 747 mmHg 88%
    11:00 -3°C° 0 mm 2 mps 747 mmHg 87%
    12:00 -3°C° 0 mm 2 mps 747 mmHg 86%
    13:00 -2°C° 0 mm 2 mps 747 mmHg 84%
    14:00 -3°C° 0 mm 2 mps 747 mmHg 86%
    15:00 -3°C° 0 mm 2 mps 747 mmHg 88%
    16:00 -4°C° 0 mm 2 mps 747 mmHg 91%
    17:00 -4°C° 0 mm 2 mps 747 mmHg 91%
    18:00 -4°C° 0 mm 2 mps 747 mmHg 92%
    19:00 -4°C° 0 mm 2 mps 747 mmHg 92%
    20:00 -4°C° 0 mm 2 mps 747 mmHg 92%
    21:00 -5°C° 0 mm 2 mps 748 mmHg 93%
    22:00 -5°C° 0 mm 2 mps 748 mmHg 93%
    23:00 -5°C° 0 mm 2 mps 748 mmHg 93%
    Show more